Tracking 32963 objects as of 21-Jan-2026
HD Live streaming from Space Station
objects crossing your sky now

SL-8 DEB

Track SL-8 DEB now!
10-day predictions


NORAD ID: 29286
Int'l Code: 1981-120Q
Perigee: 1,659.9 km
Apogee: 1,662.5 km
Inclination: 83.0 °
Period: 119.4 minutes
Semi major axis: 8032 km
RCS: 0.0083 m2 (small)
Launch date: December 17, 1981
Source: Commonwealth of Independent States (former USSR) (CIS)
Launch site: PLESETSK MISSILE AND SPACE COMPLEX (PKMTR)

Note: This is SATELLITE DEBRIS
Your satellite tracking list
Your tracking list is empty




NASA's NSSDC Master Catalog

Two Line Element Set (TLE):
1 29286U 81120Q   26019.39054416  .00000026  00000-0  19165-3 0  9992
2 29286  82.9764 168.4321 0001609  99.7705 293.6961 12.06019310569675
Source of the keplerian elements: AFSPC